When you browse on this site, cookies collect data to enhance your experience and personalize the content and advertising you see.
Visit our Privacy Policy to learn more. By continuing to use the site, you agree to this use of cookies and data.
  • en Suisse
  • Liste des pays
  • À 7 jours
  • Température de l'eau
  • Carte météo
  • Widgets météo
  • user-avatar
    Se connecter

    Météo par heure à Maturín

    Ce jour, 23 Septembre, Lundi

    Heure Température Précipitation Vent Pression Humidité
    00:00 +25°C° 0.6 mm 1 m/s 756 mmHg 96%
    01:00 +25°C° 0.6 mm 1 m/s 756 mmHg 97%
    02:00 +25°C° 0.6 mm 1 m/s 755 mmHg 97%
    03:00 +25°C° 1 mm 1 m/s 755 mmHg 97%
    04:00 +24°C° 1 mm 1 m/s 755 mmHg 98%
    05:00 +24°C° 1 mm 1 m/s 755 mmHg 98%
    06:00 +24°C° 0.6 mm 1 m/s 756 mmHg 98%
    07:00 +24°C° 0.6 mm 1 m/s 756 mmHg 98%
    08:00 +25°C° 0.6 mm 1 m/s 757 mmHg 97%
    09:00 +25°C° 0.2 mm 2 m/s 757 mmHg 96%
    10:00 +25°C° 0.2 mm 2 m/s 757 mmHg 95%
    11:00 +25°C° 0.2 mm 2 m/s 757 mmHg 95%
    12:00 +26°C° 0.3 mm 2 m/s 757 mmHg 92%
    13:00 +27°C° 0.3 mm 2 m/s 756 mmHg 90%
    14:00 +27°C° 0.3 mm 2 m/s 756 mmHg 88%
    15:00 +27°C° 0 mm 1 m/s 755 mmHg 88%
    16:00 +27°C° 0 mm 1 m/s 755 mmHg 88%
    17:00 +25°C° 0 mm 0 m/s 755 mmHg 89%
    18:00 +26°C° 0 mm 1 m/s 755 mmHg 89%
    19:00 +26°C° 0 mm 1 m/s 755 mmHg 89%
    20:00 +26°C° 0 mm 1 m/s 755 mmHg 89%
    21:00 +26°C° 0 mm 1 m/s 755 mmHg 88%
    22:00 +26°C° 0 mm 1 m/s 756 mmHg 87%
    23:00 +26°C° 0 mm 1 m/s 756 mmHg 86%

    Demain, 24 Septembre, Mardi

    Heure Température Précipitation Vent Pression Humidité
    00:00 +25°C° 0 mm 1 m/s 755 mmHg 87%
    01:00 +25°C° 0 mm 1 m/s 755 mmHg 87%
    02:00 +25°C° 0 mm 1 m/s 754 mmHg 88%
    03:00 +25°C° 0 mm 1 m/s 755 mmHg 88%
    04:00 +22°C° 0 mm 0 m/s 755 mmHg 87%
    05:00 +22°C° 0 mm 0 m/s 755 mmHg 87%
    06:00 +23°C° 0 mm 0 m/s 755 mmHg 84%
    07:00 +24°C° 0 mm 0 m/s 756 mmHg 81%
    08:00 +26°C° 0 mm 0 m/s 756 mmHg 78%
    09:00 +29°C° 0 mm 1 m/s 756 mmHg 72%
    10:00 +31°C° 0 mm 1 m/s 756 mmHg 66%
    11:00 +33°C° 0 mm 1 m/s 756 mmHg 59%
    12:00 +34°C° 0 mm 1 m/s 756 mmHg 56%
    13:00 +35°C° 0 mm 1 m/s 755 mmHg 53%
    14:00 +35°C° 0 mm 1 m/s 754 mmHg 50%
    15:00 +35°C° 0 mm 1 m/s 754 mmHg 54%
    16:00 +34°C° 0 mm 1 m/s 754 mmHg 58%
    17:00 +33°C° 0 mm 1 m/s 754 mmHg 62%
    18:00 +31°C° 0 mm 1 m/s 754 mmHg 67%
    19:00 +30°C° 0 mm 1 m/s 755 mmHg 72%
    20:00 +28°C° 0 mm 1 m/s 755 mmHg 78%
    21:00 +27°C° 0 mm 1 m/s 756 mmHg 83%
    22:00 +27°C° 0 mm 1 m/s 756 mmHg 88%
    23:00 +26°C° 0 mm 1 m/s 756 mmHg 94%

    Après-demain, 25 Septembre, Mercredi

    Heure Température Précipitation Vent Pression Humidité
    00:00 +26°C° 0 mm 1 m/s 756 mmHg 95%
    01:00 +26°C° 0 mm 1 m/s 756 mmHg 96%
    02:00 +23°C° 0 mm 0 m/s 755 mmHg 98%
    03:00 +23°C° 0 mm 0 m/s 755 mmHg 98%
    04:00 +25°C° 0 mm 1 m/s 755 mmHg 98%
    05:00 +25°C° 0 mm 1 m/s 755 mmHg 98%
    06:00 +26°C° 0 mm 1 m/s 756 mmHg 93%
    07:00 +27°C° 0 mm 1 m/s 756 mmHg 89%
    08:00 +29°C° 0 mm 1 m/s 757 mmHg 85%
    09:00 +30°C° 0 mm 1 m/s 757 mmHg 77%
    10:00 +32°C° 0 mm 1 m/s 757 mmHg 68%
    11:00 +34°C° 0 mm 1 m/s 757 mmHg 60%
    12:00 +34°C° 0 mm 1 m/s 756 mmHg 56%
    13:00 +35°C° 0 mm 1 m/s 755 mmHg 52%
    14:00 +36°C° 0 mm 1 m/s 754 mmHg 48%
    15:00 +35°C° 0 mm 1 m/s 754 mmHg 52%
    16:00 +35°C° 0 mm 1 m/s 754 mmHg 56%
    17:00 +32°C° 0 mm 0 m/s 754 mmHg 60%
    18:00 +32°C° 0 mm 1 m/s 754 mmHg 68%
    19:00 +30°C° 0 mm 1 m/s 754 mmHg 76%
    20:00 +27°C° 0 mm 2 m/s 754 mmHg 85%
    21:00 +27°C° 0 mm 2 m/s 755 mmHg 88%
    22:00 +26°C° 0 mm 1 m/s 755 mmHg 91%
    23:00 +26°C° 0 mm 1 m/s 756 mmHg 93%

    26 Septembre, Jeudi

    Heure Température Précipitation Vent Pression Humidité
    00:00 +26°C° 0 mm 1 m/s 755 mmHg 95%
    01:00 +26°C° 0 mm 1 m/s 755 mmHg 96%
    02:00 +26°C° 0 mm 1 m/s 755 mmHg 97%
    03:00 +25°C° 0 mm 1 m/s 755 mmHg 97%
    04:00 +25°C° 0 mm 1 m/s 755 mmHg 98%
    05:00 +25°C° 0 mm 1 m/s 755 mmHg 98%
    06:00 +26°C° 0 mm 1 m/s 755 mmHg 94%
    07:00 +27°C° 0 mm 1 m/s 756 mmHg 89%
    08:00 +29°C° 0 mm 1 m/s 756 mmHg 85%
    09:00 +30°C° 0 mm 1 m/s 756 mmHg 79%
    10:00 +31°C° 0 mm 1 m/s 756 mmHg 73%
    11:00 +32°C° 0 mm 1 m/s 756 mmHg 67%
    12:00 +33°C° 0.1 mm 1 m/s 755 mmHg 64%
    13:00 +34°C° 0.1 mm 1 m/s 754 mmHg 61%
    14:00 +35°C° 0.1 mm 1 m/s 753 mmHg 58%
    15:00 +33°C° 0.6 mm 1 m/s 753 mmHg 66%
    16:00 +32°C° 0.6 mm 2 m/s 753 mmHg 74%
    17:00 +30°C° 0.6 mm 2 m/s 753 mmHg 83%
    18:00 +29°C° 0.1 mm 2 m/s 753 mmHg 86%
    19:00 +28°C° 0.1 mm 2 m/s 754 mmHg 90%
    20:00 +27°C° 0.1 mm 2 m/s 754 mmHg 94%
    21:00 +26°C° 0.1 mm 2 m/s 755 mmHg 95%
    22:00 +26°C° 0.1 mm 2 m/s 755 mmHg 96%
    23:00 +26°C° 0.1 mm 1 m/s 755 mmHg 97%

    27 Septembre, Vendredi

    Heure Température Précipitation Vent Pression Humidité
    00:00 +26°C° 0 mm 1 m/s 755 mmHg 97%
    01:00 +25°C° 0 mm 1 m/s 755 mmHg 97%
    02:00 +25°C° 0 mm 1 m/s 754 mmHg 97%
    03:00 +25°C° 0 mm 1 m/s 754 mmHg 97%
    04:00 +25°C° 0 mm 1 m/s 754 mmHg 97%
    05:00 +25°C° 0 mm 1 m/s 754 mmHg 97%
    06:00 +26°C° 0 mm 1 m/s 755 mmHg 94%
    07:00 +27°C° 0 mm 2 m/s 756 mmHg 91%
    08:00 +28°C° 0 mm 2 m/s 756 mmHg 88%
    09:00 +30°C° 0 mm 2 m/s 756 mmHg 79%
    10:00 +32°C° 0 mm 2 m/s 756 mmHg 70%
    11:00 +34°C° 0 mm 2 m/s 756 mmHg 60%
    12:00 +35°C° 0.1 mm 2 m/s 755 mmHg 58%
    13:00 +35°C° 0.1 mm 2 m/s 754 mmHg 56%
    14:00 +36°C° 0.1 mm 2 m/s 754 mmHg 53%
    15:00 +35°C° 0.1 mm 3 m/s 754 mmHg 56%
    16:00 +34°C° 0.1 mm 3 m/s 753 mmHg 59%
    17:00 +33°C° 0.1 mm 3 m/s 753 mmHg 62%
    18:00 +30°C° 0 mm 3 m/s 754 mmHg 70%
    19:00 +28°C° 0 mm 2 m/s 754 mmHg 77%
    20:00 +26°C° 0 mm 2 m/s 755 mmHg 85%
    21:00 +25°C° 0 mm 2 m/s 755 mmHg 88%
    22:00 +25°C° 0 mm 1 m/s 755 mmHg 92%
    23:00 +25°C° 0 mm 1 m/s 755 mmHg 95%

    28 Septembre, Samedi

    Heure Température Précipitation Vent Pression Humidité
    00:00 +24°C° 0 mm 1 m/s 755 mmHg 95%
    01:00 +24°C° 0 mm 1 m/s 754 mmHg 95%
    02:00 +24°C° 0 mm 1 m/s 754 mmHg 95%
    03:00 +24°C° 0 mm 1 m/s 754 mmHg 95%
    04:00 +24°C° 0 mm 1 m/s 754 mmHg 96%
    05:00 +24°C° 0 mm 1 m/s 754 mmHg 96%
    06:00 +25°C° 0 mm 1 m/s 755 mmHg 91%
    07:00 +26°C° 0 mm 1 m/s 755 mmHg 85%
    08:00 +28°C° 0 mm 1 m/s 756 mmHg 80%
    09:00 +29°C° 0 mm 1 m/s 756 mmHg 73%
    10:00 +31°C° 0 mm 1 m/s 756 mmHg 65%
    11:00 +33°C° 0 mm 1 m/s 756 mmHg 58%
    12:00 +33°C° 0 mm 1 m/s 755 mmHg 55%
    13:00 +34°C° 0 mm 1 m/s 754 mmHg 52%
    14:00 +35°C° 0 mm 1 m/s 753 mmHg 49%
    15:00 +34°C° 0 mm 1 m/s 753 mmHg 54%
    16:00 +34°C° 0 mm 2 m/s 753 mmHg 59%
    17:00 +32°C° 0 mm 2 m/s 753 mmHg 63%
    18:00 +30°C° 0 mm 2 m/s 753 mmHg 72%
    19:00 +29°C° 0 mm 2 m/s 754 mmHg 80%
    20:00 +27°C° 0 mm 2 m/s 754 mmHg 88%
    21:00 +26°C° 0 mm 1 m/s 754 mmHg 90%
    22:00 +26°C° 0 mm 1 m/s 754 mmHg 91%
    23:00 +26°C° 0 mm 1 m/s 754 mmHg 92%
    Voir plus